Showing default

ECHOSTAR 25, 68126

Orbit data source: Space-Track

ECHOSTAR 25, 68126 is a payload satellite owned by Echostar (US) in GEO that was launched on Tue, 10 Mar 2026 UTC via an FALCON 9 launch vehicle from the Air Force Eastern Test Range (AFETR). Payload-class satellites include a variety of spacecraft equipped with specific instruments for various scientific and technological missions. These include communications satellites like Starlink; space stations such as the ISS; scientific satellites like the Hubble; Earth observation satellites from companies like Planet Labs, Umbra, and HawkEye 360; GPS; miniature CubeSats for education and research; and military/defense satellites.

Loading next visibility...
Identifier
68126, 2026-045A
Orbit
GEO
Country
Flag of USUS
Related business
Manufacturer
LANT
Mission
Operational spacecraft
Bus & Motor
L-1300TM, R-4D-15-300
Mass
~6,800 kg wet, 2,929 kg dry
Launch date (UTC)
2026-03-10 (3 months ago)
Launch vehicle
FALCON 9
Launch site
Air Force Eastern Test Range (AFETR)
Object type
Payload
Rocket body
Debris
Shape & HBR
Unknown shape, 22.5 m
Radar Cross Section
Large (>1 m²)

Expand to show TLE details & history
Last TLE update: 17 hours ago

TLE from 17 hours ago
0 ECHOSTAR 25
1 68126U 26045A   26171.13510616 -.00000061  00000-0  00000-0 0  9998
2 68126   0.0191  32.9364 0001942  58.2837 115.7547  1.00270586  1024
Epoch: 2026-06-20T03:14Z
TLE epoch observation values (Epoch: 2026-06-20T03:14:33.172Z)
Latitude
-0.00337°
Longitude
-109.98486°
Altitude
35,790 km
Speed
3.074 km/s
True Right ascension
13h 48m 01s
True Declination
0° 00' 12"
Sunlit
Object was in daylight at epoch
Visualization orbit readout
Latitude
Unknown
Longitude
Unknown
Altitude
Unknown
Speed
Unknown
Apparent Right ascension
Unknown
Apparent Declination
Unknown
Sunlit
N/A
Visualization observer readout
Local Sidereal Time
07:23:39
Azimuth
Unknown
Elevation
Unknown
Doppler factor
Unknown
Orbital elements
Apogee altitude
35,796.19 km
Perigee altitude
35,779.813 km
Semi-major axis
42,166.138 km
Eccentricity
0.00019
Inclination
0.0191°
RAAN
32.9364°
Arg. of periapsis
58.2837°
True anomaly
115.77474°
Mean anomaly
115.7547°
Eccentric anomaly
115.76472°
Mean motion
0.25067 °/min
Orbital period
1,436.17 mins
BSTAR
0
Loading maneuver chart data...
Computing Atmospheric mass density...
Loading historical data...
Loading historical data...
Loading historical data...
Loading historical data...
Loading historical data...
Loading historical data...
Loading historical data...
Other satellites on launch #45 in the year 2026 (2026-03-10 UTC)

Documentation

Showing up to 5 results
|